Regional Weather Roundup
Issued by NWS State College, PA

Home | Current Version | Previous Version | Graphics & Text | Print | Product List | Glossary Off
Versions: 1 2 3 4 5 6 7 8 9 10 11 12 13 14 15 16 17 18 19 20 21 22 23 24 25 26 27 28 29 30 31 32 33 34 35 36 37 38 39 40 41 42 43 44 45 46 47 48 49 50

295
ASUS41 KCTP 210710
RWRCTP

REGIONAL WEATHER ROUNDUP
NATIONAL WEATHER SERVICE STATE COLLEGE PA
200 AM EST TUE NOV 21 2017

Note: "fair" indicates few or no clouds below 12,000 feet with no
significant weather and/or obstructions to visibility.

* = STATION THAT DOES NOT REPORT PRECIPITATION /E.G. RAIN...SNOW...ETC/
    THUNDER OR FOG.

PAZ002>004-007>009-013>016-020>023-029>032-210800-
WESTERN PENNSYLVANIA

CITY           SKY/WX    TMP DP  RH WIND       PRES   REMARKS
ERIE           CLEAR     42  20  41 S21G33    29.87F
MEADVILLE      CLEAR     35  22  58 S10G18    29.92F
FRANKLIN*      CLEAR     33  21  61 S12       29.94F
NEW CASTLE     FAIR      36  23  59 VRB6      29.96F
BEAVER COUNTY  NOT AVBL
BUTLER*        CLOUDY    34  21  59 S6        29.99S
PITTSBURGH INT CLOUDY    34  22  61 S7        29.98F
PITTSBURGH     CLEAR     36  19  50 S12       29.98F
INDIANA*       CLEAR     34  23  64 CALM      30.04R
LATROBE        CLEAR     32  21  64 S6        30.02R
WASHINGTON CO* CLEAR     34  21  59 S9        30.02F
$$

PAZ004>006-010>012-017>019-024>028-033>037-041-042-045-046-049>053-210800-
CENTRAL PENNSYLVANIA

CITY           SKY/WX    TMP DP  RH WIND       PRES   REMARKS
BRADFORD       CLEAR     34  21  59 S8        29.94F
DUBOIS         CLOUDY    37  19  48 S9        29.97F
CLEARFIELD     CLOUDY    27  24  89 CALM      30.01F
JOHNSTOWN      CLOUDY    37  16  42 S8        29.99F
ALTOONA        CLEAR     35  23  61 SW9       30.03F
STATE COLLEGE  CLOUDY    35  22  59 W7        30.03F
WILLIAMSPORT   PTCLDY    29  24  82 CALM      30.07S
SELINSGROVE    CLOUDY    27  25  92 CALM      30.09S
FT INDIANTOWN  CLOUDY    26  25  95 CALM      30.11S
CAPITAL CITY   CLOUDY    33  23  66 CALM      30.10F
HARRISBURG     CLOUDY    42  25  50 SW13      30.10F
YORK           PTCLDY    43  23  45 SW9       30.10F
$$

PAZ038>040-043-044-047-048-054-055-060>062-067>071-210800-
EASTERN PENNSYLVANIA

CITY           SKY/WX    TMP DP  RH WIND       PRES   REMARKS
SCRANTON       CLEAR     36  23  59 CALM      30.05F
MOUNT POCONO   CLEAR     36  20  52 W9        30.04S
ALLENTOWN      CLOUDY    30  23  75 CALM      30.12S
QUAKERTOWN*    MOSUNNY   30  25  80 CALM      30.13S
READING        PTCLDY    32  25  75 CALM      30.12S
LANCASTER      CLOUDY    32  25  75 NE5       30.12S
COATESVILLE    CLOUDY    41  25  52 SW7       30.14S
POTTSTOWN      CLOUDY    33  23  66 CALM      30.15S
BLUE BELL      PTCLDY    36  30  80 SW6       30.16S
DOYLESTOWN     CLOUDY    36  25  64 S3        30.13S
WILLOW GROVE   NOT AVBL
NORTH PHILA    CLOUDY    40  29  64 SW5       30.17S
PHILADELPHIA   CLOUDY    42  30  62 S7        30.17S
$$




USA.gov is the U.S. government's official web portal to all federal, state and local government web resources and services.